Mount Holly, NJ

9:12 AM EST on December 07, 2019 (GMT -0500)
South Jersey Regional

Weather History for KVAY - September, 2019

Change the Weather History Date:

Monday, September 23, 2019

  Actual Average (WUND) Record (WUND)
Temperature  
Mean Temperature 78 °F -  
Max Temperature 91 °F - - (-1)
Min Temperature 66 °F - - (-1)
Cooling Degree Days 12    
Growing Degree Days 28 (Base 50)    
Moisture  
Dew Point 64 °F    
Average Humidity 67    
Maximum Humidity 90    
Minimum Humidity 36    
Precipitation  
Precipitation 0.00 in - - ()
Sea Level Pressure  
Sea Level Pressure 29.88 in    
Wind  
Wind Speed 3 mph (SW)    
Max Wind Speed 10 mph    
Max Gust Speed 20 mph    
Visibility 10 miles    
Events      
Averages and records for this station are not official NWS values.
T = Trace of Precipitation, MM = Missing Value Source: NWS Daily Summary

Daily Weather History Graph

Daily Weather History Graph

Search for Another Location

Airport or City:

Astronomy

Sep. 23, 2019 Rise Set
Actual Time 6:47 AM EDT 6:55 PM EDT
Civil Twilight 6:20 AM EDT 7:22 PM EDT
Nautical Twilight 5:49 AM EDT 7:53 PM EDT
Astronomical Twilight 5:16 AM EDT 8:25 PM EDT
Moon 12:28 AM EDT (9/23) 3:46 PM EDT (9/23)
Length of Visible Light 13h 01m
Length of Day
12h 07m
Waning Crescent, 33% of the Moon is Illuminated
Sep 23
Waning Crescent
Sep 28
New
Oct 5
First Quarter
Oct 13
Full
Oct 21
Last Quarter

Hourly Weather History & Observations

Time (EDT) Temp. Heat Index Dew Point Humidity Pressure Visibility Wind Dir Wind Speed Gust Speed Precip Events Conditions
12:54 AM 70.0 °F - 66.0 °F 87% 30.01 in 10.0 mi Calm Calm - N/A   Clear
1:54 AM 69.1 °F - 64.9 °F 87% 30.00 in 10.0 mi Calm Calm - N/A   Clear
2:54 AM 69.1 °F - 64.0 °F 84% 29.97 in 10.0 mi Calm Calm - N/A   Clear
3:54 AM 69.1 °F - 64.0 °F 84% 29.96 in 10.0 mi South 3.5 mph - N/A   Clear
4:54 AM 68.0 °F - 64.0 °F 87% 29.95 in 10.0 mi Variable 3.5 mph - N/A   Clear
5:54 AM 68.0 °F - 64.9 °F 90% 29.95 in 10.0 mi South 3.5 mph - N/A   Clear
6:54 AM 66.9 °F - 64.0 °F 90% 29.95 in 10.0 mi Calm Calm - N/A   Clear
7:54 AM 70.0 °F - 66.0 °F 87% 29.95 in 10.0 mi Calm Calm - N/A   Clear
8:54 AM 75.0 °F - 66.9 °F 76% 29.94 in 10.0 mi Variable 6.9 mph - N/A   Scattered Clouds
9:54 AM 77.0 °F - 66.9 °F 71% 29.94 in 10.0 mi SW 4.6 mph - N/A   Partly Cloudy
10:54 AM 80.1 °F 82.3 °F 66.9 °F 64% 29.93 in 10.0 mi SW 5.8 mph - N/A   Partly Cloudy
11:54 AM 82.9 °F 85.8 °F 68.0 °F 60% 29.90 in 10.0 mi Variable 4.6 mph - N/A   Clear
12:54 PM 86.0 °F 88.2 °F 66.0 °F 51% 29.88 in 10.0 mi SW 3.5 mph - N/A   Clear
1:54 PM 88.0 °F 89.3 °F 64.0 °F 45% 29.85 in 10.0 mi WSW 6.9 mph - N/A   Clear
2:54 PM 89.1 °F 89.3 °F 62.1 °F 40% 29.82 in 10.0 mi WSW 5.8 mph - N/A   Clear
4:54 PM 89.1 °F 88.2 °F 59.0 °F 36% 29.78 in 10.0 mi SW 10.4 mph 19.6 mph N/A   Clear
5:54 PM 86.0 °F 85.7 °F 60.1 °F 41% 29.78 in 10.0 mi Variable 3.5 mph - N/A   Clear
6:54 PM 82.9 °F 82.8 °F 59.0 °F 44% 29.78 in 10.0 mi Variable 3.5 mph - N/A   Partly Cloudy
7:54 PM 80.1 °F 81.5 °F 63.0 °F 56% 29.78 in 10.0 mi Variable 3.5 mph - N/A   Overcast
8:54 PM 77.0 °F - 64.9 °F 66% 29.78 in 10.0 mi Calm Calm - N/A   Partly Cloudy
9:54 PM 77.0 °F - 64.0 °F 64% 29.78 in 10.0 mi SSW 3.5 mph - N/A   Mostly Cloudy
10:54 PM 79.0 °F - 62.1 °F 56% 29.78 in 10.0 mi WSW 4.6 mph - N/A   Mostly Cloudy
11:54 PM 78.1 °F - 64.9 °F 64% 29.79 in 10.0 mi West 5.8 mph - 0.00 in   Overcast